Location: Unspecified
(0.0000°N, 0.0000°E)
Time: 04:12:56
(UTC+00:00)

Explorer 7 - Visible Passes

Search period start: 02 September 2014 00:00
Search period end: 12 September 2014 00:00
Orbit: 492 x 706 km, 50.3° (Epoch: 01 September)

Date Brightness Start Highest point End Pass type
(mag) Time Alt. Az. Time Alt. Az. Time Alt. Az.
02 Sep 8.5 19:49:09 10° SSW 19:51:43 31° SSW 19:51:43 31° SSW visible
03 Sep 9.0 18:20:57 10° SSE 18:23:24 14° SE 18:25:48 10° E visible
03 Sep 8.3 19:59:42 10° SW 20:03:23 40° W 20:03:23 40° W visible
04 Sep 8.1 18:29:35 10° S 18:33:53 30° SE 18:37:59 10° ENE visible
04 Sep 9.4 20:11:05 10° WSW 20:14:39 21° NW 20:15:14 20° NW visible
05 Sep 7.2 18:39:21 10° SSW 18:44:16 68° SE 18:48:55 10° NE visible
06 Sep 8.1 18:49:49 10° SW 18:54:36 51° NW 18:59:08 10° NNE visible
07 Sep 9.7 05:16:27 10° NNE 05:18:23 13° NE 05:20:21 10° E visible
07 Sep 9.6 19:01:04 10° WSW 19:04:55 23° NW 19:08:36 10° N visible
08 Sep 8.5 05:25:13 10° NNW 05:28:41 33° NE 05:32:19 10° ESE visible
10 Sep 9.7 04:07:14 10° NNE 04:08:43 12° NE 04:10:13 10° ENE visible
11 Sep 8.4 04:17:26 22° NNE 04:19:02 30° NE 04:22:29 10° ESE visible
